TITAN 3C TRANSTAGE R/B, 3432

Orbit data source: Space-Track

TITAN 3C TRANSTAGE R/B, 3432 is space debris in GEO originally from a launch on Thu, 26 Sep 1968 UTC launched from the Air Force Eastern Test Range (AFETR). Debris objects in space refer to the collection of defunct objects orbiting the Earth. Examples of debris include non-operational satellites, rocket bodies, and fragments generated from explosions, collisions, or faulty payload assembly.

Loading next visibility...
Identifier
3432, 1968-081E
Orbit
GEO
Country
Flag of USUS
Related business
Manufacturer
Martin Marietta
Mission
Spacecraft
Bus & Motor
TRANSTAGE, Unknown motor
Mass
~1,950 kg wet, ~1,950 kg dry
Launch date (UTC)
1968-09-26 (57 years ago)
Launch vehicle
Unknown
Launch site
Air Force Eastern Test Range (AFETR)
Object type
Payload
Rocket body
Debris
Shape & HBR
Unknown
Radar Cross Section
Large (>1 m²)

Expand to show TLE details & history
Last TLE update: 11 hours ago

TLE from 11 hours ago
0 TITAN 3C TRANSTAGE R/B
1 03432U 68081E   25353.44762626  .00000104  00000-0  00000-0 0  9995
2 03432   1.6045  44.5437 0095191 278.7474 115.1135  1.01515911120162
Epoch: 2025-12-19T10:44Z
TLE epoch observation values (Epoch: 2025-12-19T10:44:34.908Z)
Latitude
0.94319°
Longitude
-170.07165°
Altitude
35,614.005 km
Speed
3.075 km/s
True Right ascension
05h 17m 26s
True Declination
0° 56' 32"
Sunlit
Object was in daylight at epoch
Visualization orbit readout
Latitude
Unknown
Longitude
Unknown
Altitude
Unknown
Speed
Unknown
Apparent Right ascension
Unknown
Apparent Declination
Unknown
Sunlit
N/A
Visualization observer readout
Local Sidereal Time
20:44:26
Azimuth
Unknown
Elevation
Unknown
Doppler factor
Unknown
Orbital elements
Apogee altitude
35,840.56 km
Perigee altitude
35,044.371 km
Semi-major axis
41,820.603 km
Eccentricity
0.00952
Inclination
1.6045°
RAAN
44.5437°
Arg. of periapsis
278.7474°
True anomaly
116.09618°
Mean anomaly
115.1135°
Eccentric anomaly
115.60534°
Mean motion
0.25378 °/min
Orbital period
1,418.55 mins
BSTAR
0
Loading maneuver chart data...
Computing Atmospheric mass density...

Documentation

Showing up to 5 results
|